Regional Weather Roundup
Issued by NWS Grand Forks, ND

Home | Current Version | Previous Version | Graphics & Text | Print | Product List | Glossary On
Versions: 1 2 3 4 5 6 7 8 9 10 11 12 13 14 15 16 17 18 19 20 21 22 23 24 25 26 27 28 29 30 31 32 33 34 35 36 37 38 39 40 41 42 43 44 45 46 47 48 49 50
000
ASUS43 KFGF 210731
RWRFGF
PRAIRIE TO PINES  WEATHER ROUNDUP
NATIONAL WEATHER SERVICE EASTERN NORTH DAKOTA/GRAND FORKS ND
200 AM CDT MON APR 21 2014

 **SATELLITE DATA USED TO AUGMENT SKY COVER AT AUTOMATED STATIONS**
 *****  WEATHER ACROSS EASTERN NORTH DAKOTA  *****

CITY           SKY/WX    TMP DP  RH WIND       PRES   REMARKS
GRAND FORKS    PTCLDY    48  37  65 W10       29.91R
GRAND FRKS AFB PTCLDY    50  36  57 W12       29.91R
GRAND FRKS NWS   N/A     48 N/A N/A W7          N/A
DEVILS LAKE    CLEAR     45  32  61 W15       29.92S
FARGO          CLOUDY    50  35  56 CALM      29.94R
WAHPETON ARPT  MOSUNNY   50  32  50 NW7       29.95R
$$

 ***** WEATHER ACROSS CENTRAL AND WESTERN NORTH DAKOTA  *****

CITY           SKY/WX    TMP DP  RH WIND       PRES   REMARKS
BISMARCK       CLEAR     42  28  57 W7        30.05R
MINOT          CLEAR     45  34  65 W15       30.00R
JAMESTOWN      CLEAR     45  32  60 W10       29.98R
MINOT AFB      CLEAR     44  36  74 W15       29.99R
GARRISON         N/A     46  32  58 W14       30.02S
WILLISTON      CLEAR     43  32  65 N6        30.10R
DICKINSON      CLEAR     37  25  61 NW9       30.08R
HETTINGER      CLEAR     34  24  67 CALM      30.13R
$$

 *****  OTHER AIRPORT OBSERVATIONS IN OUR AREA  *****

CITY           SKY/WX    TMP DP  RH WIND       PRES   REMARKS
WALHALLA       FAIR      37  37 100 NW10      29.89R
GRAFTON AIRPOR FAIR      43  36  75 W12       29.88S
VALLEY CITY AR FAIR      45  32  61 W10       29.98R
CANDO          FAIR      45  36  70 W21       29.92R
CAVALIER APRT  FAIR      39  36  87 N9        29.89R
GWINNER        MOSUNNY   54  34  47 W10       29.99S
SHEYENNE NWR     N/A     50  35  55 W2        29.95S
ROLLA          PTSUNNY   43  37  81 NW17      29.92R
 ***** THE ABOVE OBSERVATIONS ARE NON NWS ARE NOT QUALITY
       CONTROLLED AND MAY MIS-REPORT RAIN FOR SNOW...
$$

  *****  WEATHER ACROSS NORTHERN MINNESOTA  *****

CITY           SKY/WX    TMP DP  RH WIND       PRES   REMARKS
FLAG ISLAND    MOCLDY    48  37  66 SW14      29.77F
WARROAD        PTCLDY    54  41  62 SW10      29.82S
ROSEAU         MOCLDY    54  41  62 SW10      29.83S
HALLOCK        CLOUDY    41  37  87 N8        29.87R
THF RVR FALLS  MOCLDY    52  36  54 W10       29.90R
BAUDETTE       MOCLDY    47  35  63 SW6       29.84S
WASKISH        PTCLDY    46  34  61 SW8       29.89R
CROOKSTON      MOCLDY    48  37  66 W10       29.92R
$$
  *****  WEATHER ACROSS CENTRAL AND WEST MINNESOTA  *****

CITY           SKY/WX    TMP DP  RH WIND       PRES   REMARKS
FOSSTON        CLOUDY    48  34  57 CALM      29.91F
BEMIDJI        PTCLDY    48  31  52 W9        29.91R
PARK RAPIDS    FAIR      48  35  60 W5        29.91R
ELBOW LAKE     FAIR      54  36  51 W3        29.94S
WADENA         PTCLDY    54  36  50 W6        29.93R
DETROIT LAKES  PTCLDY    52  34  50 NW6       29.95R
MOORHEAD       MOCLDY    55  34  44 CALM      29.94F
FERGUS FALLS   CLEAR     52  34  50 NW6       29.91S
MORRIS MN      MOCLDY    52  37  58 W15G26    29.92R
STAPLES        PTCLDY    50  34  53 S6        29.88F
$$
  *****  WEATHER ELSEWHERE ACROSS MINNESOTA  *****

CITY           SKY/WX    TMP DP  RH WIND       PRES   REMARKS
DULUTH         CLEAR     47  29  49 S7        29.93F
INTRNTL FALLS  CLOUDY    46  30  53 S5        29.83F
ELY            MOCLDY    45  27  49 S6        29.89F
CLOQUET        CLEAR     45  30  57 CALM      29.92F
WHEATON        PTCLDY    57  41  54 W8        29.97S
BRAINERD       MOCLDY    59  32  36 SE7       29.89F
HIBBING        PTCLDY    33  28  81 CALM      29.90F
ALEXANDRIA     MOCLDY    55  36  48 S10       29.91S
SAINT CLOUD    MOCLDY    57  32  38 E6        29.90F
MINNEAPOLIS    CLOUDY    58  55  90 E6        29.93F
$$

  *****  WEATHER ACROSS SOUTH DAKOTA  *****

CITY           SKY/WX    TMP DP  RH WIND       PRES   REMARKS
SIOUX FALLS    CLOUDY    60  50  69 W5        29.89R
BROOKINGS      NOT AVBL
WATERTOWN      MOCLDY    56  41  57 N9G25     29.96R
HURON          PTCLDY    55  36  48 N16       29.96R
SISSETON         N/A     51  37  58 N13       29.96R
ABERDEEN       CLOUDY    54  32  43 N12       30.01R
MITCHELL       CLOUDY    59  41  51 W8        29.95R
PIERRE         CLEAR     50  28  42 N18       30.04R
MOBRIDGE       CLEAR     46  26  45 NW12      30.04R
RAPID CITY     CLEAR     43  24  47 NW13      30.15R
$$

  *****  SOME WEATHER IN NEARBY STATES *****

CITY           SKY/WX    TMP DP  RH WIND       PRES   REMARKS
GLASGOW MT     CLEAR     36  27  69 N7        30.12R
GREAT FALLS MT CLOUDY    38  22  52 S6        30.18F
CHEYENNE WY    CLEAR     44  32  62 N7        30.23R
SCOTTSBLUFF NE PTCLDY    51  31  46 NW5       30.18R
OMAHA NE       CLOUDY    63  57  81 SE3       29.95F
DES MOINES IA  CLOUDY    64  54  69 CALM      29.97S
DAVENPORT IA   CLOUDY    66  43  43 S10       29.98F
CHICAGO IL     CLOUDY    65  40  39 SW9       30.00F
EAU CLAIRE WI  CLOUDY    54  52  93 NE3       29.96R
LA CROSSE WI   CLOUDY    53  52  96 CALM      29.96S FOG
$$

  *****  SOME NATIONAL WEATHER *****

CITY           SKY/WX    TMP DP  RH WIND       PRES   REMARKS
LA GUARDIA NY  CLEAR     43  26  51 NE3       30.26F
RALEIGH NC     PTCLDY    46  34  62 N3        30.16F
ATLANTA GA     PTCLDY    57  40  52 E3        30.16F
NEW ORLEANS LA PTCLDY    62  58  86 S7        30.14S
OKLAHOMA CITY  CLOUDY    59  56  89 S9        29.99F
ALBUQUERQUE NM PTCLDY    59  37  44 SE7       30.15R
SALT LAKE CITY PTCLDY    51  32  48 NW5       30.20R
LOS ANGELES CA CLEAR     60  55  83 CALM      30.05S
BOISE ID       MOCLDY    49  26  41 S5        30.19S
SEATTLE WA     MOCLDY    49  40  71 CALM      30.15S
$$

*** WEATHER ACROSS MANITOBA...SASKATCHEWAN AND ONTARIO ***
                ***ONTARIO***

CITY           SKY/WX    TMP DP  RH WIND       PRES   REMARKS
GERALDTON      CLEAR     27  25  93 CALM      29.96F
THUNDER BAY    CLEAR     28  27  93 CALM      29.96S
SIOUX LOOKOUT  PTCLDY    37  27  65 E3        29.88S
TORONTO        PTCLDY    45  30  57 W3        30.09F
BIG TROUT LK   CLOUDY    32  27  80 NW6       29.94S
PICKLE LAKE    NOT AVBL
DRYDEN         CLOUDY    36  30  80 E8        29.82F
KENORA         MOCLDY    45  32  61 S9        29.77F
$$
                *** MANITOBA***

CITY           SKY/WX    TMP DP  RH WIND       PRES   REMARKS
BRANDON        LGT RAIN  36  34  93 N12       29.97R
DAUPHIN        LGT SNOW  34  32  93 NW7       30.02R
ISLAND LAKE    CLOUDY    32  32 100 E2        29.97R
PILOT MOUND      N/A     34  34 100 NW10        N/A
THE PAS        MOCLDY    27  25  93 CALM      30.03S
THOMPSON       MOCLDY    23  23 100 W2        30.00S
WINNIPEG       PTCLDY    34  32  93 NW9       29.88R
LYNN LAKE      CLEAR     25  14  63 N3        29.98S
CHURCHILL      FOG       14  12  92 W6        30.07S VSB 1/4 WCI   5
GILLAM         CLEAR     19  19 100 CALM      30.03S
$$
                ***SASKATCHEWAN***

CITY           SKY/WX    TMP DP  RH WIND       PRES   REMARKS
ESTEVAN        CLOUDY    39  39 100 NW14      30.05R
KINDERSLEY     PTCLDY    30  30 100 S7        30.11R WCI  23
LLOYDMINSTER     N/A     36  34  93 SW9       30.06R
PRINCE ALBERT  CLOUDY    37  34  87 W7        30.06S
REGINA         CLOUDY    34  34 100 NW9       30.11R
YORKTON        FOG       32  32 100 W3        30.05R VSB 3/8
N. BATTLEFORD  FOG       28  28 100 S6        30.12R VSB 1/2 WCI  22
LA RONGE       PTCLDY    36  30  80 S5        30.01R
SASKATOON      FOG       27  27 100 W6        30.12R VSB 1/2 WCI  20
SWIFT CURRENT  PTCLDY    28  28 100 S10       30.11R FOG     WCI  19
$$
NOTE: THESE ARE AUTOMATED STATIONS WITH LIMITED QUALITY CONTROL
      "FAIR" INDICATES FEW OR NO CLOUDS BELOW 12,000 FEET WITH NO
      SIGNIFICANT WEATHER AND/OR OBSTRUCTIONS TO VISIBILITY.
      SKY/WX - SKY CONDITION AND SIGNIFICANT WEATHER.
      TMP - AIR TEMPERATURE.    DP   - DEWPOINT TEMPERATURE.
      RH  - RELATIVE HUMIDITY.  PRES - PRESSURE.
      HX  - HEAT INDEX.         WCI  - WIND CHILL INDEX.
$



USA.gov is the U.S. government's official web portal to all federal, state and local government web resources and services.